Regional Weather Roundup
Issued by NWS

Home | Current Version | Previous Version | Graphics & Text | Print | Product List | Glossary On
Versions: 1 2 3 4 5 6 7 8 9 10 11 12 13 14 15 16 17 18 19 20 21 22 23 24 25 26 27 28 29 30 31 32 33 34 35 36 37 38 39 40 41 42 43 44 45 46 47 48 49 50
000
ASUS43 KFSD 291002
RWRSD

WEATHER ROUNDUP FOR SOUTH DAKOTA
NATIONAL WEATHER SERVICE SIOUX FALLS SD
500 AM CDT MON AUG 29 2016

NOTE: "FAIR" INDICATES FEW OR NO CLOUDS BELOW 12,000 FEET WITH NO
SIGNIFICANT WEATHER AND/OR OBSTRUCTIONS TO VISIBILITY.


SDZ001>005-009-010-012>017-291100-
NORTHWEST AND NORTH CENTRAL SOUTH DAKOTA

CITY           SKY/WX    TMP DP  RH WIND       PRES   REMARKS
BUFFALO          N/A     66  52  60 NE16      30.12R
FAITH            N/A     60  53  77 N13       30.12R
MOBRIDGE       CLEAR     63  57  81 NW5       30.05R
$$

SDZ012>016-024>037-041>051-057-063-072>074-291100-
SOUTHWEST AND SOUTH CENTRAL SOUTH DAKOTA

CITY           SKY/WX    TMP DP  RH WIND       PRES   REMARKS
RAPID CTY ARPT CLEAR     65  46  50 N17       30.12R
PIERRE         CLEAR     68  58  70 S5        30.03R
CUSTER         CLOUDY    57  36  45 NW5       30.27R
ELLSWORTH AFB  CLEAR     67  46  47 N21       30.12R
PHILIP         CLEAR     59  57  93 CALM      30.06R
PINE RIDGE     PTCLDY    63  59  87 SW6       30.14R
WINNER         FAIR      71  61  70 SW9       30.08S
$$

SDZ004>011-016>023-039-040-291100-
NORTHEAST SOUTH DAKOTA

CITY           SKY/WX    TMP DP  RH WIND       PRES   REMARKS
ABERDEEN       CLEAR     69  67  93 NW6       30.06R
WATERTOWN      CLEAR     70  67  90 S9        30.09R
BROOKINGS        N/A    N/A N/A N/A MISG        N/A
$$

SDZ017-020-022-023-036>040-048>070-291100-
SOUTHEAST SOUTH DAKOTA

CITY           SKY/WX    TMP DP  RH WIND       PRES   REMARKS
SIOUX FALLS    PTCLDY    69  68  96 S6        30.13S
HURON          CLEAR     70  68  93 S10       30.05S
CHAMBERLAIN    CLEAR     69  63  83 SE6       30.08S
MITCHELL       CLEAR     69  67  93 S8        30.09R
YANKTON        PTCLDY    68  64  88 E5        30.11R
$$

ABBREVIATIONS USED IN REMARKS
   TC - TEMPERATURE IN CELSIUS
  WCI - WIND CHILL INDEX
   HX - HEAT INDEX
  VSB - VISIBILITY





USA.gov is the U.S. government's official web portal to all federal, state and local government web resources and services.